Flag for U.S.A. Weather past 2 weeks in Fairfax, Virginia, U.S.A.

Now
38 °F

Clear.


Feels Like: 32 °F
Forecast: 36 / 57 °F
Wind: 8 mph from Northwest

Location: Washington-Dulles International Airport

Current Time: Apr 1, 2015 at 5:04:04 AM

Latest Report: Apr 1, 2015 at 3:52 AM


Visibility: 10 mi

Pressure: 29.98 "Hg

Humidity: 68%

Dew point: 28 °F

Location of FairfaxLocation

Historic Weather in Fairfax — Graph

°F

Fairfax temperature yesterday

Maximum temperature yesterday: 67 °F (at 1:52 PM)
Minimum temperature yesterday: 38 °F (at 6:52 AM)
Average temperature yesterday: 52 °F

Past Weeks' High & Low Weather Summary

 TemperatureHumidityPressure
High74 °F (Mar 26, 3:52 PM)96% (Mar 21, 6:52 AM)30.42 "Hg (Mar 21, 6:52 AM)
Low22 °F (Mar 29, 5:52 AM)16% (Mar 29, 5:52 PM)29.57 "Hg (Mar 31, 3:52 PM)
Average43 °F51%30.07 "Hg
* Reported Mar 17 3:52 AM — Apr 1 3:52 AM, Fairfax, Weather by CustomWeather, © 2015

Note: Actual official high and low records may vary slightly from our data, if they occured in-between our weather recording intervals... More about our weather records

Advertising

Fairfax weather history for previous 24 hours

 ConditionsComfort  
Time TempWeatherWind HumidityBarometerVisibility
3:52 AM
Wed, Apr 1
38 °FClear.8 mph68%29.98 "Hg10 mi
2:52 AM39 °FClear.9 mph67%29.97 "Hg10 mi
1:52 AM40 °FPassing clouds.9 mph65%29.94 "Hg10 mi
12:52 AM41 °FPassing clouds.17 mph62%29.93 "Hg10 mi
11:52 PM
Tue, Mar 31
44 °FPassing clouds.20 mph63%29.89 "Hg10 mi
10:52 PM46 °FPassing clouds.16 mph71%29.85 "Hg10 mi
9:52 PM49 °FPassing clouds.16 mph66%29.81 "Hg10 mi
8:52 PM51 °FPassing clouds.15 mph66%29.77 "Hg10 mi
7:52 PM52 °FLight rain. Mostly cloudy.15 mph72%29.73 "Hg10 mi
6:52 PM58 °FBroken clouds.24 mph46%29.68 "Hg10 mi
5:52 PM63 °FLight rain. Mostly cloudy.25 mph37%29.60 "Hg10 mi
4:52 PM63 °FMostly cloudy.12 mph37%29.57 "Hg10 mi
3:52 PM66 °FMostly cloudy.14 mph26%29.57 "Hg10 mi
2:52 PM67 °FBroken clouds.23 mph24%29.60 "Hg10 mi
1:52 PM67 °FScattered clouds.22 mph24%29.63 "Hg10 mi
12:52 PM64 °FScattered clouds.15 mph27%29.72 "Hg10 mi
11:52 AM62 °FScattered clouds.20 mph29%29.77 "Hg10 mi
10:52 AM59 °FSunny.17 mph32%29.83 "Hg10 mi
9:52 AM54 °FPassing clouds.12 mph37%29.87 "Hg10 mi
8:52 AM47 °FPassing clouds.7 mph46%29.92 "Hg10 mi
7:52 AM40 °FPassing clouds.6 mph55%29.93 "Hg10 mi
6:52 AM38 °FPassing clouds.3 mph60%29.93 "Hg10 mi
5:52 AM40 °FPassing clouds.3 mph53%29.92 "Hg10 mi
Weather by CustomWeather, © 2015

See weather overviewHow to use our weather pages